Home > Weather > Sidon > Past weeks

Flag for Lebanon Past Weather in Sidon, Lebanon — Yesterday and Last 2 Weeks

Now
82 °F

Passing clouds.


Feels Like: 88 °F
Forecast: 82 / 92 °F
Wind: 2 mph from Northwest

Location: Beirut Airport

Current Time: Aug 25, 2016 at 6:06:53 AM

Latest Report: Aug 25, 2016 at 5:00 AM


Visibility: 4 mi

Pressure: 29.77 "Hg

Humidity: 74%

Dew Point: 73 °F

Location of SidonLocation

Past Weather in Sidon — Graph

°F

Sidon Temperature Yesterday

Maximum temperature yesterday: 88 °F (at 12:00 PM)
Minimum temperature yesterday: 82 °F (at 12:00 AM)
Average temperature yesterday: 84 °F

High & Low Weather Summary for the Past Weeks

 TemperatureHumidityPressure
High90 °F (Aug 11, 3:00 PM)84% (Aug 19, 2:00 AM)29.89 "Hg (Aug 19, 2:00 AM)
Low79 °F (Aug 13, 6:00 AM)45% (Aug 17, 8:00 AM)29.74 "Hg (Aug 10, 5:00 AM)
Average84 °F67%29.82 "Hg
* Reported Aug 10 5:00 AM — Aug 25 4:00 AM, Sidon, Weather by CustomWeather, © 2016

Note: Actual official high and low records may vary slightly from our data, if they occured in-between our weather recording intervals... More about our weather records

Advertising

Sidon Weather History for the Previous 24 Hours

Scroll right to see more
 ConditionsComfort  
Time TempWeatherWind HumidityBarometerVisibility
4:00 AM
Thu, Aug 25
82 °FPassing clouds.2 mph74%29.77 "Hg4 mi
3:00 AM82 °FPassing clouds.2 mph74%29.77 "Hg4 mi
2:00 AM82 °FPassing clouds.3 mph74%29.77 "Hg4 mi
1:00 AM82 °FPassing clouds.5 mph79%29.77 "Hg4 mi
12:00 AM82 °FPassing clouds.5 mph79%29.80 "Hg4 mi
11:00 PM
Wed, Aug 24
84 °FPassing clouds.3 mph70%29.80 "Hg5 mi
10:00 PM84 °FPassing clouds.5 mph66%29.80 "Hg5 mi
9:00 PM84 °FPassing clouds.5 mph70%29.80 "Hg5 mi
8:00 PM84 °FPartly sunny.5 mph74%29.77 "Hg5 mi
7:00 PM84 °FPartly sunny.6 mph74%29.77 "Hg5 mi
6:00 PM84 °FPartly sunny.9 mph74%29.77 "Hg5 mi
5:00 PM84 °FPartly sunny.9 mph74%29.77 "Hg5 mi
4:00 PM84 °FPartly sunny.9 mph74%29.77 "Hg5 mi
3:00 PM86 °FPartly sunny.9 mph70%29.77 "Hg5 mi
2:00 PM86 °FPartly sunny.9 mph66%29.80 "Hg5 mi
1:00 PM86 °FPartly sunny.12 mph66%29.80 "Hg5 mi
12:00 PM88 °FPartly sunny.12 mph62%29.80 "Hg5 mi
11:00 AM86 °FPartly sunny.10 mph70%29.80 "Hg5 mi
10:00 AM84 °FPartly sunny.7 mph70%29.80 "Hg5 mi
9:00 AM86 °FPartly sunny.3 mph62%29.80 "Hg5 mi
8:00 AM82 °FPartly sunny.5 mph70%29.80 "Hg5 mi
7:00 AM82 °FPassing clouds.3 mph70%29.80 "Hg5 mi
6:00 AM82 °FPassing clouds.7 mph74%29.80 "Hg5 mi
Weather by CustomWeather, © 2016

See weather overviewHow to use our weather pages